DELTA 1 DEB, 26836

Orbit data source: Space-Track

DELTA 1 DEB, 26836 is space debris in SSO originally from a launch on Thu, 12 Jun 1975 UTC launched from the Air Force Western Test Range (AFWTR). Debris objects in space refer to the collection of defunct objects orbiting the Earth. Examples of debris include non-operational satellites, rocket bodies, and fragments generated from explosions, collisions, or faulty payload assembly.

Loading next visibility...
Identifier
26836, 1975-052KQ
Orbit
SSO
Country
Flag of USUS
Related business
Manufacturer
Unknown
Mission
Spacecraft
Bus & Motor
Unknown
Mass
Unknown
Launch date (UTC)
1975-06-12 (51 years ago)
Launch vehicle
Unknown
Launch site
Air Force Western Test Range (AFWTR)
Object type
Payload
Rocket body
Debris
Shape & HBR
Unknown shape, 0.1 m
Radar Cross Section
Small (<0.1 m²)

Expand to show TLE details & history
Last TLE update: 3 days ago

TLE from 3 days ago
0 DELTA 1 DEB
1 26836U 75052KQ  26170.65304170  .00000030  00000-0  15584-3 0  9995
2 26836  99.8099 226.1762 0103757 226.0301 287.2605 13.27064756608492
Epoch: 2026-06-19T15:40Z
TLE epoch observation values (Epoch: 2026-06-19T15:40:22.802Z)
Latitude
27.44706°
Longitude
-91.67158°
Altitude
1,138.614 km
Speed
7.297 km/s
True Right ascension
03h 25m 12s
True Declination
27° 18' 50"
Sunlit
Object was in daylight at epoch
Visualization orbit readout
Latitude
Unknown
Longitude
Unknown
Altitude
Unknown
Speed
Unknown
Apparent Right ascension
Unknown
Apparent Declination
Unknown
Sunlit
N/A
Visualization observer readout
Local Sidereal Time
15:45:18
Azimuth
Unknown
Elevation
Unknown
Doppler factor
Unknown
Orbital elements
Apogee altitude
1,233.356 km
Perigee altitude
1,077.029 km
Semi-major axis
7,533.329 km
Eccentricity
0.01038
Inclination
99.8099°
RAAN
226.1762°
Arg. of periapsis
226.0301°
True anomaly
286.12077°
Mean anomaly
287.2605°
Eccentric anomaly
286.69106°
Mean motion
3.31942 °/min
Orbital period
108.45 mins
BSTAR
0.00015584
Loading maneuver chart data...
Computing Atmospheric mass density...

Documentation

Showing up to 5 results
|